User: anonymous   Login
Location: Newark
(33.6439°N, 114.9881°W)
Time: 05:32:56
(UTC+00:00)
Language:

Explorer 11/Cluster Stage 4 - Orbit

View from above orbital plane
View from above orbital plane
View from above satellite
View from above satellite

Ground track
Ground track

The orbit data is extracted from the following two-line orbital elements,

1   107U 61013A   19228.94516237 +.00000320 +00000-0 +21111-4 0  9993
2   107 028.7888 106.6742 0547274 184.6668 174.8639 14.08817133923104
Epoch (UTC): 16 August 2019 22:41:02
Eccentricity: 0.0547274
inclination: 28.7888°
perigee height: 467 km
apogee height: 1260 km
right ascension of ascending node: 106.6742°
argument of perigee: 184.6668°
revolutions per day: 14.08817133
mean anomaly at epoch: 174.8639°
orbit number at epoch: 92310

The dashed part of the orbit path shows where the satellite is in the earth's shadow,  

DLR